Location: Whitehorse
(60.7170°N, 135.0500°W)
Time: 12:16:26
(UTC-07:00)

SL-16 R/B - Visible Passes

Search period start: 21 April 2018 00:00
Search period end: 01 May 2018 00:00
Orbit: 843 x 847 km, 71.0° (Epoch: 21 April)

Date Brightness Start Highest point End Pass type
(mag) Time Alt. Az. Time Alt. Az. Time Alt. Az.
21 Apr 2.5 01:08:10 10° SW 01:13:49 68° NW 01:19:30 10° NE visible
21 Apr 3.8 02:53:43 10° W 02:58:52 34° NNW 03:04:01 10° NE visible
21 Apr 4.1 04:39:28 10° NW 04:44:28 30° N 04:49:28 10° ENE visible
21 Apr 2.7 23:10:36 10° S 23:15:48 39° ESE 23:21:03 10° NE visible
22 Apr 2.5 00:54:04 10° SW 00:59:44 69° NW 01:05:25 10° NE visible
22 Apr 3.9 02:39:36 10° W 02:44:46 34° NNW 02:49:56 10° NE visible
22 Apr 4.2 04:25:22 10° NW 04:30:22 30° N 04:35:21 10° ENE visible
22 Apr 2.7 22:56:33 10° S 23:01:45 38° ESE 23:06:57 10° NE visible
23 Apr 2.5 00:39:58 10° SW 00:45:39 70° NW 00:51:21 10° NE visible
23 Apr 3.9 02:25:30 10° W 02:30:39 34° NNW 02:35:50 10° NE visible
23 Apr 4.2 04:11:16 10° NW 04:16:15 30° N 04:21:14 10° ENE visible
23 Apr 2.7 22:42:31 10° S 22:47:41 38° ESE 22:52:52 10° NE visible
24 Apr 2.5 00:25:53 10° SW 00:31:33 71° NW 00:37:15 10° NE visible
24 Apr 3.9 02:11:22 10° W 02:16:33 35° NNW 02:21:44 10° NE visible
24 Apr 4.2 03:57:09 10° NW 04:02:09 30° N 04:07:08 10° ENE visible
24 Apr 2.8 22:28:29 10° S 22:33:37 37° ESE 22:38:45 10° NE visible
25 Apr 2.5 00:11:48 10° SW 00:17:28 72° NW 00:23:10 10° NE visible
25 Apr 3.9 01:57:15 10° W 02:02:27 35° NNW 02:07:39 10° NE visible
25 Apr 4.3 03:43:03 10° NW 03:48:02 30° N 03:53:01 10° ENE visible
25 Apr 2.5 23:57:42 10° SW 00:03:23 74° NW 00:09:05 10° NE visible
26 Apr 3.9 01:43:09 10° W 01:48:20 35° NNW 01:53:33 10° NE visible
26 Apr 4.3 03:28:57 10° NW 03:33:56 30° N 03:38:54 10° ENE visible
26 Apr 3.5 05:13:49 10° NW 05:19:19 47° NNE 05:24:47 10° ESE visible
26 Apr 2.5 23:43:37 10° SW 23:49:18 75° NW 23:55:00 10° NE visible
27 Apr 3.9 01:29:03 10° W 01:34:14 35° NNW 01:39:28 10° NE visible
27 Apr 4.3 03:14:51 10° NW 03:19:49 30° N 03:24:48 10° ENE visible
27 Apr 3.5 04:59:44 10° NW 05:05:13 46° NNE 05:10:40 10° ESE visible
27 Apr 2.5 23:29:31 10° SW 23:35:13 76° NW 23:40:56 10° NE visible
28 Apr 3.9 01:14:56 10° W 01:20:08 36° NNW 01:25:22 10° NE visible
28 Apr 4.3 03:00:45 10° NW 03:05:43 30° N 03:10:41 10° ENE visible
28 Apr 3.5 04:45:39 10° NW 04:51:07 45° NNE 04:56:34 10° ESE visible
28 Apr 2.4 23:15:27 10° SW 23:21:07 78° NW 23:26:50 10° NE visible
29 Apr 3.9 01:00:49 10° W 01:06:02 36° NNW 01:11:17 10° NE visible
29 Apr 4.3 02:46:39 10° NW 02:51:37 30° N 02:56:34 10° ENE visible
29 Apr 3.6 04:31:33 10° NW 04:37:01 45° NNE 04:42:28 10° ESE visible
29 Apr 2.4 23:01:21 10° SW 23:07:02 79° NW 23:12:46 10° NE visible
30 Apr 3.9 00:46:42 10° W 00:51:56 36° NNW 00:57:11 10° NE visible
30 Apr 4.3 02:32:33 10° WNW 02:37:30 30° N 02:42:28 10° ENE visible
30 Apr 3.6 04:17:29 10° NW 04:22:56 44° NNE 04:28:21 10° ESE visible
30 Apr 2.4 22:47:16 10° SW 22:52:58 80° NW 22:58:41 10° NE visible
